Flag for Canada Weather past 2 weeks in Rae-Edzo, Northwest Territories, Canada

Now
26 °F

Chilly.


Feels Like: 26 °F
Forecast: 30 / 55 °F
Wind: 2 mph from East

Location: Lac La Martre

Current Time: May 28, 2015 at 6:18:56 AM

Latest Report: May 28, 2015 at 5:00 AM


Visibility: N/A

Pressure: 30.53 "Hg

Humidity: 86%

Dew point: 22 °F

Location of Rae-EdzoLocation

Historic Weather in Rae-Edzo — Graph

°F

Rae-Edzo temperature yesterday

Maximum temperature yesterday: 47 °F (at 6:00 PM)
Minimum temperature yesterday: 34 °F (at 5:00 AM)
Average temperature yesterday: 40 °F

Past Weeks' High & Low Weather Summary

 TemperatureHumidityPressure
High81 °F (May 20, 5:00 PM)91% (May 15, 5:00 AM)30.54 "Hg (May 15, 5:00 AM)
Low18 °F (May 16, 5:00 AM)15% (May 20, 4:00 PM)29.66 "Hg (May 14, 5:00 PM)
Average55 °F43%30.12 "Hg
* Reported May 13 5:00 AM — May 28 5:00 AM, Rae-Edzo, Weather by CustomWeather, © 2015

Note: Actual official high and low records may vary slightly from our data, if they occured in-between our weather recording intervals... More about our weather records

Advertising

Rae-Edzo weather history for previous 24 hours

 ConditionsComfort  
Time TempWeatherWind HumidityBarometerVisibility
5:00 AM
Thu, May 28
26 °FChilly.2 mph86%30.53 "HgN/A
4:00 AM24 °FCold.3 mph90%30.54 "HgN/A
3:00 AM25 °FCold.3 mph89%30.54 "HgN/A
2:00 AM26 °FChilly.3 mph82%30.53 "HgN/A
1:00 AM30 °FChilly.3 mph69%30.51 "HgN/A
12:00 AM34 °FChilly.3 mph57%30.50 "HgN/A
11:00 PM
Wed, May 27
38 °FChilly.5 mph46%30.48 "HgN/A
10:00 PM45 °FQuite cool.6 mph35%30.47 "HgN/A
9:00 PM47 °FCool.7 mph33%30.45 "HgN/A
8:00 PM47 °FCool.6 mph32%30.45 "HgN/A
7:00 PM47 °FCool.7 mph31%30.44 "HgN/A
6:00 PM47 °FCool.6 mph32%30.44 "HgN/A
5:00 PM46 °FCool.8 mph34%30.44 "HgN/A
4:00 PM45 °FCool.8 mph37%30.44 "HgN/A
3:00 PM43 °FQuite cool.10 mph40%30.43 "HgN/A
2:00 PM42 °FQuite cool.9 mph45%30.42 "HgN/A
1:00 PM41 °FQuite cool.9 mph45%30.41 "HgN/A
12:00 PM38 °FChilly.12 mph50%30.40 "HgN/A
11:00 AM36 °FChilly.12 mph54%30.37 "HgN/A
10:00 AM36 °FChilly.12 mph55%30.36 "HgN/A
9:00 AM36 °FChilly.10 mph55%30.34 "HgN/A
8:00 AM36 °FChilly.13 mph58%30.32 "HgN/A
7:00 AM36 °FChilly.9 mph61%30.31 "HgN/A
6:00 AM35 °FChilly.12 mph69%30.28 "HgN/A
Weather by CustomWeather, © 2015

See weather overviewHow to use our weather pages